Theta_e
352 351 351 351 350 350 351 351 350 350 350 350 352 354 354 354 353 354 354 353 353 351 351 352 352 354 356 356 356 357 356 356 357 356 355 356 357 358 358 357 357 359 359 359 359 359 357 357 358 356 354 354 357 355 352 353 354 354 354 354 354 354 354 355 356 356 356 356 355 353 353 353 353 354 353 353 354 352 350 350 350 352 354 354 352
351 351 350 350 349 349 351 351 349 350 351 351 352 354 354 353 352 352 354 354 353 353 352 353 353 354 356 356 356 356 355 354 355 356 356 356 357 358 359 358 358 360 359 359 359 359 358 357 358 357 354 354 356 355 354 354 353 354 355 354 354 354 354 355 355 356 356 356 356 354 353 354 353 353 353 353 352 350 349 351 352 353 354 353 353
351 350 350 349 349 349 350 350 349 350 352 353 354 354 353 353 352 351 354 356 355 354 354 355 354 354 356 356 356 356 356 355 355 356 356 355 356 357 358 359 359 360 360 360 361 360 359 358 358 358 357 356 356 356 356 356 355 355 355 356 355 355 355 354 355 357 357 357 357 355 354 355 354 353 352 352 352 350 350 352 352 352 353 352 353
349 349 349 350 351 351 351 350 351 351 353 354 354 353 353 354 353 352 354 357 357 355 354 355 355 355 355 356 356 356 356 356 355 355 355 355 354 355 356 356 357 358 359 360 360 360 360 360 359 358 359 358 359 359 358 358 358 357 356 357 356 356 356 355 354 357 358 357 358 357 355 354 354 353 353 354 354 353 352 351 351 351 351 352 354
349 349 350 350 351 352 352 352 352 352 353 353 353 353 353 354 354 354 354 356 357 356 355 354 355 355 355 355 355 355 354 355 354 354 355 354 354 355 355 355 355 356 357 357 357 358 359 359 359 359 359 360 360 360 360 360 360 359 358 357 357 357 356 356 355 356 358 359 359 358 356 355 354 353 354 355 356 355 354 352 352 350 349 351 354
350 351 351 351 351 352 353 354 353 353 353 353 353 353 353 353 353 353 354 355 355 356 356 355 355 354 354 354 354 354 353 353 352 352 353 354 354 354 355 356 356 355 356 357 357 357 358 358 358 358 359 359 359 359 359 359 360 360 359 359 359 358 358 358 357 357 358 359 360 359 358 358 358 356 354 354 355 355 354 354 353 351 349 350 351
349 350 351 353 353 352 352 352 353 354 354 353 354 354 354 354 353 353 354 354 354 354 355 355 354 353 353 353 353 353 353 353 352 352 352 353 354 354 355 357 357 357 356 357 358 358 358 358 358 358 358 358 358 359 359 359 360 360 360 359 359 359 359 359 359 359 359 360 359 359 359 359 359 357 354 351 350 354 356 357 355 351 350 351 348
348 349 350 351 353 353 353 352 352 353 354 353 353 355 355 355 355 354 354 354 354 354 354 354 354 353 354 353 354 354 353 352 352 352 351 352 352 353 353 354 356 358 357 357 357 357 357 357 358 358 358 356 355 357 358 358 359 360 360 359 359 359 360 360 360 360 360 359 359 359 360 360 360 358 357 355 356 358 359 358 356 353 351 350 346
349 350 350 351 353 355 355 354 354 354 354 353 354 355 355 355 355 355 355 354 354 354 354 354 354 354 354 354 353 353 353 351 351 351 351 351 352 353 353 353 355 357 357 357 357 357 356 356 356 356 354 352 352 353 353 354 355 357 358 358 359 360 360 360 360 360 360 360 359 359 360 360 360 359 359 360 359 357 356 356 357 357 357 356 352
350 351 351 352 353 354 354 354 355 355 355 355 355 355 355 356 355 355 355 355 354 354 354 354 354 354 353 353 352 352 352 351 350 350 350 350 351 353 353 353 353 355 356 357 357 357 357 356 356 354 351 350 351 351 351 351 352 353 354 356 357 359 360 360 359 359 360 359 358 358 358 358 357 356 355 356 356 355 356 357 358 358 358 359 358
351 350 350 351 351 351 351 352 354 355 356 356 356 355 355 355 355 355 355 355 354 354 354 353 353 352 352 352 351 351 351 351 350 349 348 349 349 350 352 354 354 354 355 356 356 357 357 357 357 356 354 353 353 352 351 351 351 351 352 353 353 355 357 359 359 360 359 358 357 357 357 357 357 355 354 353 354 355 357 357 358 358 358 359 359
350 350 350 350 350 350 350 351 353 353 353 354 355 355 354 354 354 354 353 353 352 352 352 351 351 351 351 350 350 351 350 349 348 348 348 348 348 348 350 353 355 356 356 356 356 357 357 357 357 356 356 355 354 353 353 352 351 351 351 351 351 352 353 354 356 358 359 359 358 358 357 357 357 357 355 353 354 356 357 357 358 359 359 359 359
348 349 350 350 351 351 350 351 351 351 351 351 352 353 353 353 353 353 352 352 351 351 351 351 351 351 351 351 352 351 349 347 348 347 347 347 347 347 348 349 352 354 356 356 357 357 357 357 357 356 356 356 354 354 355 355 354 352 352 352 353 352 352 352 352 354 355 357 358 359 358 358 358 356 353 352 353 355 357 357 358 359 360 360 360
346 347 348 349 350 350 350 350 350 349 349 349 350 351 351 351 352 352 352 352 351 351 351 352 352 352 353 353 353 351 349 349 349 348 347 347 348 348 347 347 349 351 352 353 355 356 356 356 357 357 356 357 356 355 355 356 355 355 354 355 356 355 355 354 353 353 353 353 354 355 355 355 356 354 351 350 352 354 355 356 356 357 358 358 357
343 344 345 346 348 348 349 349 349 348 349 348 348 348 347 347 347 348 349 349 350 351 351 351 351 351 352 353 351 350 349 350 351 350 349 349 349 349 349 349 350 350 350 351 351 352 352 353 354 355 355 356 356 354 353 354 355 355 355 355 356 355 355 353 353 353 353 353 353 353 353 353 353 352 351 352 353 352 352 353 353 354 355 355 356
339 341 342 344 346 346 346 346 345 345 344 344 343 342 342 343 343 344 345 346 348 349 349 350 350 350 351 351 349 347 347 349 350 350 351 350 350 351 350 350 351 351 351 351 350 351 351 351 351 352 353 355 354 352 351 351 352 354 355 355 355 355 354 353 351 351 351 352 352 352 352 351 351 351 350 350 350 349 349 351 353 354 355 357 358
337 338 339 341 341 342 342 342 341 341 340 340 340 339 339 340 341 342 343 344 345 346 347 347 348 348 348 348 346 345 344 346 347 349 350 351 351 352 352 352 352 352 352 352 352 351 351 351 351 351 351 352 351 349 349 349 349 351 353 355 355 354 355 354 352 351 350 350 350 351 350 350 350 350 350 349 348 346 347 350 353 354 355 357 357
336 338 339 340 341 342 342 341 342 342 342 341 342 341 340 341 341 341 341 341 342 342 343 343 343 344 344 344 343 341 341 342 343 346 349 350 351 352 352 353 353 353 354 354 353 353 353 352 352 351 352 352 351 350 351 350 350 351 352 354 354 354 355 354 353 353 352 351 351 352 351 352 351 351 351 351 350 347 346 349 351 352 354 355 356
334 335 336 337 338 339 339 340 341 342 342 342 342 342 342 341 340 338 338 337 337 337 337 337 338 339 341 341 339 337 336 337 338 340 344 346 348 350 351 352 352 352 353 353 353 354 354 353 352 352 352 352 352 352 352 352 352 353 353 353 354 355 355 354 353 353 352 352 353 353 353 353 353 353 353 353 353 352 351 350 351 352 354 355 356
331 331 332 333 335 336 338 339 339 340 341 340 339 338 337 336 334 334 333 332 332 332 332 333 333 334 337 338 338 335 334 334 335 335 337 340 342 344 346 346 346 347 348 350 351 351 351 351 351 350 349 350 351 351 352 352 353 353 353 354 355 355 355 354 353 353 353 353 354 354 354 354 354 355 355 355 355 355 355 355 354 354 355 355 357
330 330 331 333 334 335 335 335 335 334 335 335 333 331 330 330 329 329 329 329 328 328 329 329 330 331 333 336 337 335 333 332 333 334 334 334 336 337 339 339 339 340 342 343 344 345 345 346 346 346 346 347 348 349 350 351 352 352 352 353 353 353 353 352 352 353 353 353 354 354 354 354 355 355 355 355 355 355 356 356 355 355 356 356 357
330 331 331 330 330 330 329 329 329 328 328 327 326 324 323 324 324 325 325 325 326 327 328 328 328 330 332 333 334 333 332 332 332 332 332 332 332 333 333 333 334 335 336 337 338 338 338 337 337 338 339 341 343 345 346 348 349 350 351 351 351 352 351 351 350 351 352 353 353 353 354 354 354 355 355 355 355 355 355 355 355 355 356 356 356
329 328 327 326 325 325 325 324 325 324 324 322 320 318 317 317 318 320 321 322 325 327 327 328 328 329 329 330 330 330 330 329 329 329 329 329 330 330 330 330 330 329 330 331 333 333 333 333 332 332 334 336 337 340 341 343 344 345 346 347 348 348 349 348 348 348 350 351 351 352 353 353 353 354 354 354 354 355 354 355 354 355 354 355 355
326 325 324 323 323 322 322 322 323 322 322 321 319 318 316 315 316 317 318 321 325 327 327 328 328 328 329 329 327 327 326 325 325 325 326 326 326 326 326 326 326 325 327 330 332 333 333 334 334 334 335 336 337 338 340 341 342 342 343 344 344 345 345 346 346 347 347 348 349 350 351 351 352 352 352 352 352 352 352 353 353 354 354 354 354
325 325 324 323 323 322 322 322 322 322 321 321 320 319 317 316 316 316 318 322 326 328 328 329 329 329 329 328 325 323 324 324 324 324 324 324 324 323 323 323 323 322 324 327 330 332 334 335 336 337 337 337 338 338 339 340 341 342 342 343 344 344 344 345 345 346 347 347 348 348 348 348 349 349 349 350 350 350 351 351 352 352 352 353 353
325 324 324 324 323 323 323 322 321 321 320 320 320 319 318 317 316 318 321 324 327 329 328 328 329 329 328 326 324 322 322 322 322 322 323 323 323 323 322 322 322 321 321 322 323 325 327 329 331 334 335 336 336 336 336 337 338 339 339 339 340 340 340 341 341 342 343 344 344 345 346 347 347 347 347 348 348 349 349 350 350 350 350 351 351
326 325 325 325 325 325 324 323 322 321 321 320 320 320 319 318 317 319 322 325 327 328 327 327 328 327 326 326 325 323 322 321 320 321 321 321 321 321 321 321 321 321 320 320 319 319 319 320 321 324 327 329 330 330 331 332 333 334 334 334 335 335 334 334 335 335 335 336 338 340 341 342 344 345 346 347 348 348 348 348 349 349 349 349 350
327 327 327 326 326 325 324 323 322 322 321 321 321 321 321 321 320 320 321 323 325 326 326 325 325 326 325 325 325 324 323 321 319 319 319 319 319 319 319 319 319 318 318 318 317 317 316 316 316 316 317 319 322 323 324 324 325 326 326 328 330 331 330 330 331 332 331 331 332 333 334 336 339 342 343 343 344 346 346 347 347 348 348 349 349
326 326 326 326 325 325 324 323 322 322 321 320 319 320 320 321 321 320 320 321 323 324 324 323 323 324 324 323 323 324 322 320 318 318 318 318 318 317 317 316 316 316 315 315 315 315 315 316 316 316 317 318 319 320 320 320 321 321 321 323 325 325 324 325 325 324 325 326 327 327 329 332 336 336 337 338 339 341 343 344 345 347 348 349 349
324 324 324 324 323 323 322 322 322 322 322 321 320 319 319 319 320 320 319 320 321 322 322 321 321 321 321 320 320 320 319 318 317 317 317 317 316 316 315 315 314 314 314 314 314 315 317 318 317 317 318 318 318 318 318 318 318 319 319 320 321 320 320 320 319 318 320 322 323 324 326 329 330 331 332 333 334 335 336 336 337 339 341 344 348
322 322 322 321 321 321 320 320 320 320 321 321 321 320 319 319 319 319 319 319 319 320 320 320 319 319 319 318 318 317 317 317 316 316 316 316 315 315 314 314 314 314 313 313 315 316 317 318 317 316 317 317 316 316 316 316 316 317 317 318 318 317 316 316 315 316 318 319 320 321 324 325 326 327 328 327 326 327 328 329 329 329 330 334 340
320 320 319 319 318 318 319 319 319 319 319 319 320 320 320 319 318 318 317 317 318 318 318 318 317 316 316 316 316 316 317 317 316 316 315 315 314 314 314 313 313 312 312 313 316 316 316 316 316 315 315 315 315 314 315 314 315 315 315 315 315 315 314 313 313 314 315 316 317 319 321 322 323 323 322 321 321 322 324 325 325 325 326 329 332
317 317 317 317 317 317 317 317 318 318 319 319 319 319 319 319 319 318 316 316 315 315 315 315 315 315 315 315 315 316 316 316 315 315 315 315 314 314 313 313 312 312 312 314 316 316 315 315 315 314 314 314 314 314 314 314 314 314 314 313 313 313 312 312 312 313 313 313 315 316 318 319 320 319 318 317 318 319 320 321 321 322 324 325 326
315 314 315 315 315 315 316 316 316 317 317 318 318 318 318 318 318 318 317 316 316 315 314 313 313 313 314 314 315 315 315 315 315 315 315 314 313 313 313 313 313 313 313 315 315 314 314 314 314 313 313 313 313 313 313 313 313 313 313 312 312 312 312 311 312 312 312 312 313 314 315 317 317 317 315 315 316 316 316 317 318 318 319 320 321
315 314 313 313 314 314 315 315 315 315 316 316 316 317 317 317 317 317 317 317 316 315 314 314 313 312 312 312 312 312 312 312 313 314 315 314 313 313 314 314 314 313 313 313 313 313 313 313 312 312 312 312 312 312 312 312 312 312 312 312 311 311 311 311 311 311 311 311 312 312 313 314 315 314 313 313 313 313 314 314 315 315 316 317 318
314 313 313 313 313 314 314 314 313 313 314 314 314 314 315 315 315 315 315 315 314 314 314 314 313 311 311 311 310 309 310 311 312 313 314 313 312 313 314 314 313 313 313 312 312 311 311 311 311 311 311 310 311 310 310 311 311 311 311 311 310 310 310 310 310 310 310 310 311 311 311 312 313 313 312 312 312 312 312 313 313 313 313 314 315
312 311 311 312 313 313 313 312 311 311 311 312 313 313 313 313 313 313 313 313 312 312 312 312 312 312 312 311 310 309 309 310 311 313 313 312 312 312 313 313 312 312 312 311 311 310 310 310 310 310 309 309 309 309 309 309 309 309 309 310 309 309 309 309 309 309 309 309 310 310 310 310 310 310 311 311 311 310 311 311 311 312 312 313 314
309 309 309 310 311 311 311 310 309 309 310 310 311 312 312 312 311 311 311 311 311 310 310 310 310 311 311 310 309 309 309 310 311 312 313 312 312 312 312 311 311 311 311 310 309 309 309 309 308 308 308 308 308 308 308 308 308 308 309 309 309 308 308 308 308 308 308 308 308 308 309 309 309 309 309 309 309 309 309 309 310 311 312 313 314
308 306 306 307 308 310 309 308 308 308 309 309 309 310 311 311 310 309 309 309 309 309 309 309 309 309 309 308 307 308 309 310 311 311 311 311 310 310 310 310 310 310 309 309 308 308 308 308 307 307 307 307 307 307 307 307 307 307 307 307 308 308 308 308 308 308 307 307 307 307 307 308 308 308 308 308 307 307 307 308 308 309 311 312 313
307 306 304 305 306 307 307 306 307 307 308 308 308 310 310 310 308 308 308 308 308 308 308 308 308 308 307 306 306 307 308 308 309 309 309 309 309 308 308 308 309 308 308 307 307 307 307 306 306 306 306 306 306 306 306 306 306 306 306 306 307 307 307 307 307 307 306 305 305 305 305 306 306 306 306 305 305 305 305 306 307 308 309 310 311
305 305 304 303 304 305 305 305 306 307 307 308 308 309 309 308 307 306 306 306 307 307 306 306 306 306 305 304 304 305 306 307 307 307 307 307 307 307 307 307 307 307 306 306 305 305 305 305 305 305 305 305 305 305 305 305 305 305 305 305 305 306 306 306 306 305 304 303 303 303 303 304 303 303 303 303 303 303 304 305 306 307 308 309 310
303 303 303 303 304 305 305 306 306 306 307 307 307 307 307 306 305 305 305 305 305 305 305 304 304 304 304 303 302 303 304 306 306 306 305 305 305 305 305 305 305 305 305 304 304 304 304 304 304 304 304 304 304 304 304 304 304 304 304 304 304 305 305 305 304 303 302 301 301 301 301 301 301 301 301 301 301 302 303 304 305 306 307 308 309
303 303 304 304 304 305 305 305 305 306 306 306 306 306 305 305 304 304 304 304 304 304 303 303 303 303 303 302 301 301 302 304 305 305 304 305 304 304 304 304 303 303 303 303 303 303 303 302 303 303 303 303 303 303 303 303 303 303 303 303 303 304 303 303 303 302 300 300 300 300 300 299 299 299 299 300 300 301 302 303 304 305 306 307 308
304 304 304 304 304 304 304 305 305 305 304 304 304 304 303 303 303 303 303 303 303 302 302 302 302 302 302 302 301 301 302 302 303 303 303 303 303 303 303 303 303 303 303 302 302 302 301 301 301 302 302 302 302 302 303 303 303 302 302 303 302 302 302 301 301 300 299 298 298 298 298 298 297 297 298 298 299 300 301 302 303 304 305 306 307
303 304 304 304 304 304 304 303 303 303 303 303 303 303 302 302 302 302 302 301 301 301 301 301 301 301 300 300 300 300 301 301 301 301 301 302 302 303 303 303 303 302 302 301 301 301 301 301 301 301 301 301 301 301 301 301 302 302 302 302 301 301 300 299 299 298 297 297 297 297 296 296 296 296 297 297 298 299 300 300 301 303 304 305 307
303 304 304 303 303 303 303 303 302 302 302 302 302 302 301 301 301 301 300 300 300 300 300 300 299 299 299 299 299 299 300 300 300 301 301 301 302 302 302 302 301 301 300 300 300 300 299 299 300 300 300 300 300 300 300 300 301 301 301 300 300 299 299 298 297 296 296 296 296 296 295 295 295 295 296 296 297 298 299 299 301 302 304 305 306
303 304 303 303 303 302 302 302 302 301 301 301 301 301 300 300 300 300 299 299 299 299 299 299 298 298 298 298 298 299 299 299 300 300 300 301 301 301 301 300 300 299 299 298 298 298 298 298 298 299 299 299 299 299 299 299 299 299 299 298 298 297 297 296 295 294 294 294 294 294 294 294 294 295 295 296 296 297 298 299 300 302 304 305 306
303 303 303 302 302 301 301 301 300 300 300 300 300 300 300 299 299 299 299 298 298 298 298 298 297 297 298 298 298 298 298 298 299 299 299 300 300 300 299 299 298 298 297 297 296 296 296 296 296 297 297 298 298 298 298 298 297 297 297 297 296 296 295 294 293 293 293 293 293 293 293 293 294 294 294 295 296 297 298 299 300 302 303 305 306
302 302 301 301 300 300 300 299 299 299 299 299 299 299 299 298 298 298 298 297 297 297 297 297 297 297 297 297 297 297 297 297 297 298 298 299 298 298 298 297 297 296 295 295 295 295 295 295 295 295 296 296 296 297 297 296 296 296 296 296 295 294 293 292 292 292 292 292 292 292 292 292 292 293 294 295 296 297 298 299 300 302 303 304 305
300 300 300 300 299 299 299 298 298 298 298 298 299 298 298 298 297 297 297 297 296 296 296 296 296 296 296 296 296 296 296 296 297 297 297 297 297 297 296 296 295 294 294 294 294 294 293 294 294 294 294 294 295 295 295 295 295 295 294 294 293 293 292 292 292 292 292 292 292 292 291 291 291 292 294 295 297 298 299 300 301 302 303 304 305
300 300 300 299 299 299 299 298 298 298 298 298 298 298 297 297 297 297 296 296 296 296 296 296 295 295 295 295 295 296 296 296 296 296 296 295 295 295 295 294 294 293 293 293 293 293 292 293 293 293 293 293 293 293 293 294 293 293 293 292 292 293 293 293 293 293 293 293 292 291 291 291 292 293 295 296 297 298 299 300 301 302 303 304 305
Wind_Speed
23 24 25 25 24 23 23 23 23 19 16 15 14 13 12 11 9 8 8 7 7 7 8 9 8 8 7 7 7 7 7 7 7 9 10 11 10 9 9 9 8 8 8 8 7 8 9 9 9 9 9 8 7 7 7 7 6 6 6 6 6 7 6 7 9 11 12 10 11 11 12 13 12 11 12 12 12 14 15 16 17 16 16 16 18
22 24 24 25 24 22 21 21 22 20 16 16 15 14 13 12 10 8 7 7 7 7 8 8 8 7 7 7 7 7 7 6 7 8 9 10 10 9 9 9 9 8 8 8 8 8 9 9 9 9 9 9 8 7 7 7 7 7 7 7 7 7 7 8 8 11 13 11 10 11 12 12 12 13 14 14 15 17 18 17 16 15 15 16 15
22 24 23 23 22 21 20 21 21 20 17 16 16 14 13 13 12 10 8 7 7 7 8 8 8 7 7 7 7 7 7 6 7 8 8 9 9 9 8 9 9 8 8 8 8 8 8 9 9 8 7 8 8 8 8 8 8 8 8 8 8 8 8 9 9 10 12 13 11 11 11 11 13 14 16 16 16 17 17 16 15 14 14 14 13
23 23 22 22 20 19 20 20 19 19 17 16 16 15 13 12 13 12 9 8 8 7 8 8 8 7 7 8 7 8 7 7 8 8 9 9 9 10 9 9 9 9 9 8 8 8 8 8 8 8 7 8 9 9 8 8 8 8 9 9 10 10 9 10 11 11 11 12 12 12 14 15 16 16 16 15 15 15 16 16 15 15 14 14 12
21 21 21 21 19 18 18 17 18 18 18 16 15 15 13 12 13 13 11 10 9 9 9 9 9 8 8 8 8 9 9 9 9 9 9 9 9 10 10 10 10 10 10 10 9 9 9 9 9 8 8 9 9 9 8 8 8 8 8 9 9 10 11 11 13 12 11 12 13 13 15 16 16 17 16 14 14 15 17 17 16 16 17 16 12
17 16 17 18 19 20 19 17 17 18 18 16 14 14 13 13 13 14 14 13 11 10 10 10 10 10 9 9 9 9 10 10 10 10 10 10 10 11 11 11 12 12 11 10 10 10 10 10 10 10 10 10 10 10 9 10 10 9 9 10 10 10 11 11 12 13 12 12 12 13 13 13 13 16 17 16 16 16 16 17 16 17 18 18 16
17 16 16 16 17 20 20 20 19 17 17 17 15 13 13 13 13 13 14 13 12 12 11 11 11 12 12 11 11 10 10 11 11 11 11 11 12 12 12 11 11 12 11 11 10 10 10 11 11 11 11 11 11 10 10 10 10 10 11 11 11 11 11 11 11 11 12 11 11 12 12 12 13 15 17 18 18 16 13 13 15 17 19 19 19
20 18 18 18 19 19 19 20 21 19 19 19 18 15 13 13 13 13 12 12 12 12 11 10 11 11 11 12 11 11 10 10 11 11 11 11 12 12 13 13 12 12 12 12 10 10 11 11 11 11 12 13 12 12 11 11 11 12 12 12 12 12 12 11 11 11 11 12 12 12 12 12 12 13 14 14 14 12 9 9 12 16 18 19 21
19 20 20 20 18 15 15 17 19 19 18 19 19 17 15 14 14 13 13 13 12 12 11 11 10 10 11 12 12 11 11 11 10 10 11 12 13 13 13 14 13 12 13 13 12 12 12 12 11 12 13 14 14 14 13 13 13 14 13 13 14 13 13 13 12 12 12 12 13 12 12 12 11 12 11 10 11 12 13 12 12 14 15 16 19
19 20 20 19 17 15 14 15 16 17 16 16 18 17 16 15 14 14 14 14 14 14 14 12 11 10 11 12 13 13 13 13 12 11 10 11 12 13 14 15 15 14 14 14 14 13 13 12 13 15 17 17 16 16 15 14 15 15 15 15 15 15 14 14 13 13 13 13 13 13 13 13 12 12 13 12 12 13 13 12 12 14 14 14 16
18 20 21 20 19 17 16 14 13 14 13 14 16 16 16 16 15 15 14 14 14 14 12 11 10 9 9 10 11 11 12 13 13 13 12 11 11 12 13 14 14 15 14 14 14 14 13 13 13 15 17 17 16 16 16 16 15 16 16 16 17 17 16 16 15 14 13 14 15 14 14 15 15 14 14 15 14 12 12 12 12 13 13 12 13
15 17 18 18 16 15 15 12 9 10 11 12 13 13 14 14 14 14 14 14 13 11 9 9 9 7 7 7 6 5 7 11 13 12 12 11 11 11 12 13 13 13 13 13 13 13 13 12 12 12 13 15 16 16 17 17 17 16 16 16 16 17 17 17 17 16 15 15 16 15 15 15 16 15 15 16 15 14 14 14 13 12 12 12 12
13 12 12 12 12 11 11 10 7 7 9 11 10 10 10 10 10 10 11 10 9 8 7 7 6 5 4 3 2 3 6 9 10 9 10 10 10 10 12 13 13 12 12 12 12 12 12 12 13 12 12 14 16 15 15 16 17 17 17 17 17 17 16 17 18 18 18 17 17 17 17 17 18 18 20 21 20 18 16 15 14 13 13 13 13
11 10 9 8 10 11 11 10 9 9 11 13 11 9 9 9 9 8 8 7 7 6 5 4 4 3 3 3 4 4 4 5 6 7 8 8 8 9 10 11 12 12 12 12 11 11 11 11 12 13 12 12 13 13 13 14 15 16 16 16 16 16 16 17 17 17 18 19 19 20 21 20 21 23 25 24 23 20 18 17 16 15 16 16 18
15 15 15 14 13 14 14 13 12 11 10 10 8 7 7 8 8 8 8 7 5 5 4 4 4 4 4 5 4 3 1 2 3 5 6 6 7 8 9 9 10 10 11 11 11 12 12 12 12 12 12 10 11 13 14 13 13 15 16 16 16 16 17 17 16 15 15 17 19 20 20 20 20 22 22 20 20 22 21 21 21 20 21 20 21
19 20 19 18 18 17 17 17 16 14 13 12 12 11 11 12 12 11 11 9 7 6 5 5 5 6 6 6 5 4 2 0 2 4 4 5 5 6 8 8 9 9 9 10 10 10 10 12 12 12 11 10 12 15 16 15 15 15 15 16 16 16 16 17 19 19 17 17 18 18 19 20 20 21 20 19 20 22 22 21 21 20 19 18 18
20 21 21 20 19 18 19 19 19 18 17 15 14 12 11 11 10 9 11 11 11 10 10 9 8 8 7 6 6 5 3 2 1 2 3 4 3 3 5 6 7 7 7 7 7 7 8 9 10 9 8 8 11 14 14 14 14 14 13 13 14 15 16 15 16 18 19 20 21 21 22 23 22 22 22 20 20 21 22 21 20 18 18 17 17
19 20 20 19 19 18 18 18 19 19 18 16 15 16 15 14 13 12 14 14 14 13 13 12 10 9 8 7 7 8 7 5 3 2 1 2 3 2 1 3 4 5 5 6 5 4 5 6 7 7 6 8 10 10 10 11 11 10 11 11 12 14 14 13 11 12 16 20 22 23 24 25 24 24 24 22 19 19 21 22 20 19 19 19 19
21 21 20 19 18 17 17 17 18 18 18 18 20 21 20 19 18 17 17 16 15 15 15 14 13 11 9 8 9 10 11 9 7 5 5 3 3 4 3 1 1 3 5 6 6 5 4 4 5 6 6 8 9 9 9 10 9 8 10 10 11 12 12 11 11 13 17 19 21 22 23 24 24 24 25 24 22 21 23 24 22 20 20 21 22
22 22 21 20 19 17 18 19 20 20 21 22 24 23 21 20 18 17 16 16 16 16 16 16 15 12 9 8 9 10 11 12 10 9 8 7 6 6 6 5 4 4 5 5 6 5 3 3 5 7 7 8 9 9 10 10 10 9 9 10 12 13 13 13 15 18 20 20 20 21 22 23 23 21 20 20 19 20 22 23 22 20 20 21 22
20 20 19 20 21 21 22 23 24 24 23 23 23 22 21 19 18 17 16 15 15 16 15 16 16 13 11 11 11 10 10 12 12 11 10 10 9 9 10 9 8 6 6 6 5 5 5 4 5 8 9 9 10 10 10 11 11 11 10 10 12 14 15 15 15 16 16 15 16 18 20 20 20 18 17 17 17 17 18 18 18 18 19 20 21
21 21 21 23 24 25 25 24 24 25 25 24 24 24 23 22 20 19 18 16 16 17 17 16 16 16 15 14 12 10 10 12 12 11 11 12 11 12 13 12 10 8 7 6 6 6 7 7 7 9 10 10 10 11 11 11 11 11 10 11 12 14 15 15 13 12 13 13 15 16 17 17 17 17 17 17 16 16 16 16 16 17 18 19 20
23 23 23 24 24 24 23 23 23 23 23 23 24 24 24 23 22 21 20 19 19 18 18 17 17 18 15 12 12 12 13 13 14 13 14 14 14 14 14 13 11 9 8 7 7 8 8 9 9 10 11 11 11 11 11 11 11 11 11 11 12 14 14 13 11 11 12 13 14 15 15 15 16 16 15 15 15 15 15 16 17 18 19 21 22
22 22 22 22 22 21 21 21 21 21 20 20 21 22 21 21 21 21 20 20 18 16 16 17 16 15 12 10 13 16 16 15 16 16 16 17 17 16 15 14 12 10 10 9 8 8 9 9 9 9 9 9 9 9 8 9 9 10 10 10 11 12 12 10 10 11 12 13 14 15 15 14 14 15 15 14 15 16 16 17 18 18 19 20 21
19 20 20 19 19 19 19 19 19 19 18 18 18 19 18 19 19 19 19 18 16 13 12 13 13 11 10 11 14 17 16 16 16 17 17 17 17 16 16 16 14 13 13 12 10 9 9 9 8 8 8 8 8 7 7 8 7 7 8 8 9 9 10 10 10 11 12 13 14 15 15 14 14 14 14 14 15 15 16 16 17 17 17 18 19
18 18 18 18 18 18 18 18 18 18 18 18 18 18 17 17 18 17 16 14 13 11 10 10 10 10 10 10 13 15 16 17 17 17 16 16 16 15 15 15 14 14 15 14 13 13 12 11 10 9 8 9 9 9 9 9 8 8 9 10 10 11 11 11 11 11 11 12 14 15 15 15 15 14 14 13 13 14 14 15 16 16 17 17 19
17 17 16 15 15 16 16 17 17 17 17 17 17 17 16 16 17 16 14 12 11 11 11 10 9 10 10 9 9 12 14 16 16 16 16 16 16 16 16 16 15 16 16 16 16 16 15 14 13 11 9 9 9 9 9 10 10 10 11 11 12 12 12 13 13 13 14 14 14 15 15 15 15 15 14 14 14 13 13 15 17 18 18 18 19
16 15 14 13 13 14 15 16 15 15 15 15 15 14 13 14 15 15 13 12 10 10 11 11 10 9 8 7 7 8 10 13 15 15 15 15 16 16 16 16 17 16 17 16 16 15 14 13 13 13 12 12 11 11 11 11 12 11 12 12 12 12 13 13 13 15 16 15 14 15 16 16 15 15 15 15 15 15 15 16 18 19 19 18 19
17 16 14 13 13 13 14 14 13 14 15 16 16 15 13 12 12 13 13 12 11 10 11 11 10 9 8 8 7 7 8 10 12 13 12 13 13 14 14 14 15 14 14 15 14 14 14 13 13 14 13 13 13 12 12 13 12 12 13 13 12 12 13 13 14 16 16 15 14 15 16 16 15 16 16 16 16 16 16 17 18 19 19 19 19
16 15 14 13 13 13 13 13 13 12 12 14 16 16 15 14 13 13 13 12 11 11 11 10 10 9 9 9 9 9 9 10 10 10 10 11 11 12 12 13 13 13 13 14 15 14 13 12 11 11 11 11 11 11 12 12 12 12 13 13 12 13 13 13 13 15 15 14 14 15 14 15 15 15 16 16 16 16 17 18 19 20 21 19 18
14 13 13 14 14 14 13 13 14 13 12 12 12 13 14 15 14 13 12 11 11 11 10 10 9 8 9 9 9 9 9 9 9 9 9 9 10 10 11 11 12 13 14 14 13 13 11 10 10 10 10 9 10 10 10 11 11 11 12 12 11 12 13 13 14 15 14 13 14 14 13 14 14 14 15 15 16 17 18 19 20 22 22 21 19
13 12 12 14 15 14 13 12 12 13 12 11 10 10 11 12 12 12 11 10 9 9 9 8 8 8 8 8 7 7 7 7 7 8 8 7 8 8 9 11 12 13 14 13 11 10 9 9 9 9 9 9 9 9 9 9 9 10 11 11 11 12 12 13 14 13 13 13 14 13 13 13 14 14 14 15 16 16 16 16 17 19 20 19 18
14 13 12 13 13 13 12 12 11 10 10 9 8 8 7 7 8 9 9 9 8 8 8 8 7 7 7 7 7 6 5 5 5 6 5 5 5 6 8 10 12 14 13 11 9 8 8 8 8 8 8 8 9 9 9 9 9 9 10 10 11 11 12 13 13 12 12 13 13 13 13 13 14 14 15 15 15 15 15 15 15 15 15 16 17
13 13 12 12 12 12 11 10 9 8 8 7 6 6 5 4 5 6 6 6 6 6 7 7 7 7 7 7 6 5 4 3 3 3 3 3 3 5 8 10 12 14 13 10 8 8 8 7 7 8 8 8 9 9 9 9 9 9 9 10 10 12 12 13 12 12 13 13 13 12 13 13 14 14 15 16 15 15 15 15 15 15 15 16 17
11 10 9 10 10 10 10 9 8 7 7 6 5 4 3 3 4 4 4 4 3 3 4 4 5 6 6 6 5 4 3 2 1 1 1 1 2 4 6 7 8 9 9 8 8 8 8 8 8 8 8 9 9 9 10 10 10 10 10 10 11 12 13 13 12 12 13 14 13 13 14 13 13 14 15 16 16 16 16 16 16 16 16 16 17
9 9 9 9 9 8 8 8 7 7 6 5 4 4 4 4 4 4 4 3 3 3 3 3 3 4 5 5 5 4 3 2 1 1 2 3 2 4 5 6 6 7 7 7 8 8 8 8 8 9 9 10 10 10 11 11 11 11 11 12 12 12 12 12 13 13 13 14 14 14 13 13 13 14 15 15 15 16 17 18 18 18 17 17 18
8 7 7 7 7 7 6 6 6 6 6 6 6 6 6 6 5 5 4 4 3 3 2 2 1 1 3 5 6 5 4 3 3 3 3 2 2 4 4 5 6 7 7 7 8 8 8 8 8 9 10 10 11 11 12 12 12 11 12 12 12 12 12 12 12 13 14 14 14 14 14 14 14 14 14 15 16 16 16 17 18 19 19 19 19
7 6 7 7 7 7 7 6 6 7 7 6 6 6 7 7 6 5 5 4 4 3 2 1 1 1 2 4 6 6 4 2 2 2 1 2 3 4 4 5 6 6 6 7 8 8 8 8 8 9 10 10 11 12 12 12 12 12 12 12 12 12 12 12 12 13 14 14 14 14 14 15 15 14 15 16 17 17 17 17 18 18 19 18 18
7 7 8 7 7 7 7 6 6 6 6 6 6 6 7 7 6 5 4 4 3 2 2 1 1 1 2 4 6 6 5 3 2 2 3 4 4 4 5 5 6 6 6 7 8 8 9 9 9 10 10 10 11 11 12 12 12 12 12 12 12 12 12 12 12 14 14 13 12 13 13 14 14 15 16 17 17 17 17 18 18 18 18 18 18
7 6 7 7 6 6 6 6 6 6 6 6 6 7 7 7 5 4 3 3 2 2 1 1 1 1 2 4 4 4 4 4 3 4 4 4 5 5 6 6 6 7 7 8 8 9 9 10 10 11 11 11 11 11 12 12 12 12 12 12 12 12 12 12 13 14 14 13 13 13 13 13 14 14 16 16 16 17 18 18 18 18 18 18 19
5 5 5 6 6 6 6 6 6 6 7 7 7 7 7 7 5 3 2 2 2 2 1 0 1 2 2 3 2 2 3 4 4 4 5 5 5 6 6 6 7 7 7 8 9 10 10 11 11 11 12 12 12 12 12 12 12 12 12 12 12 12 13 13 14 15 14 14 14 14 14 14 15 16 16 17 17 17 17 17 17 18 18 18 19
5 5 6 6 6 6 6 7 7 7 7 7 7 7 6 5 4 3 2 2 1 1 0 1 2 3 3 4 4 4 4 5 5 5 5 6 6 7 7 7 7 8 9 10 10 11 11 12 12 12 13 13 13 13 13 13 12 12 12 12 12 12 13 14 15 15 15 14 14 15 15 16 17 17 17 17 17 17 17 17 18 18 18 18 18
6 6 7 7 7 7 7 8 8 8 7 7 7 6 6 4 3 3 2 1 0 1 1 2 3 3 4 5 6 5 5 5 5 5 6 7 7 8 8 8 9 9 9 10 11 11 12 13 14 14 14 13 13 14 13 13 13 13 13 13 13 14 14 15 16 16 15 15 16 17 17 17 17 17 17 18 18 18 18 18 18 18 18 18 19
7 8 8 8 8 8 8 8 8 8 7 7 6 6 5 3 3 2 1 0 0 1 2 2 3 4 4 5 5 5 5 5 6 6 7 8 8 9 10 10 9 9 8 9 11 12 13 14 15 15 15 15 14 14 14 14 14 14 13 13 14 14 15 16 17 17 17 17 18 18 18 18 18 18 18 18 18 18 19 19 19 19 19 19 19
8 8 9 9 9 9 9 8 7 7 6 6 5 5 4 3 2 2 1 0 0 1 2 2 3 3 4 5 5 5 5 6 6 7 8 8 8 9 9 9 8 8 9 11 13 13 14 15 15 15 16 16 15 15 15 15 15 14 14 14 14 15 16 17 17 18 18 18 19 19 19 19 19 19 19 19 19 20 20 20 21 21 21 20 20
8 8 9 9 9 8 8 7 6 5 5 4 4 4 3 3 2 2 1 1 1 1 2 2 3 4 5 5 6 6 6 6 7 7 7 8 8 9 8 7 7 8 9 12 14 14 14 14 15 15 16 16 16 16 16 16 15 15 14 14 15 16 16 16 17 18 19 20 20 21 20 20 21 21 21 22 21 21 21 21 21 21 21 21 21
8 9 9 8 8 7 7 6 6 5 5 4 4 3 3 3 2 2 1 1 1 2 2 3 4 5 5 6 5 6 6 6 7 7 8 8 9 9 8 7 7 8 10 12 14 15 15 15 15 15 16 16 16 16 16 16 15 15 15 15 16 16 16 18 20 20 19 19 20 21 21 22 22 22 22 22 22 22 22 22 22 22 21 21 22
8 9 8 8 7 7 6 6 6 5 5 4 4 3 3 3 2 2 1 2 2 2 3 4 5 5 5 5 5 6 7 7 7 8 8 8 8 8 7 7 7 8 12 14 15 16 16 15 15 15 15 15 15 16 15 15 15 15 15 16 15 16 19 22 23 21 19 19 20 20 22 23 23 23 24 24 23 23 23 22 21 21 21 21 21
9 9 8 8 7 7 6 6 5 5 4 4 4 4 3 2 2 1 1 2 3 3 4 4 4 5 5 5 6 7 7 8 8 8 8 8 8 9 8 7 8 11 14 15 15 15 15 15 15 14 14 14 14 14 14 14 14 14 14 14 15 18 21 23 22 22 22 22 20 20 22 25 25 26 26 26 24 23 23 22 21 22 22 22 22
9 9 9 8 8 7 7 6 6 5 5 4 4 4 3 3 2 1 1 2 3 3 4 4 4 5 6 6 7 7 8 7 8 8 8 8 9 9 8 9 11 13 14 14 13 13 13 13 12 12 12 12 12 12 12 12 12 12 12 13 15 17 19 20 20 21 22 22 22 23 25 27 27 27 27 25 23 22 22 22 22 22 22 22 23
10 10 10 9 8 8 7 7 6 5 5 5 4 4 3 2 1 1 2 3 3 4 4 4 5 5 6 6 6 7 8 8 8 8 9 9 9 10 10 11 12 13 12 12 11 11 11 11 11 11 11 11 11 10 10 10 10 12 13 15 16 17 17 19 20 20 20 21 23 25 25 25 25 25 24 23 21 22 22 23 23 23 23 23 23
Wind_Direction
212 216 216 218 222 225 225 224 223 224 227 229 227 226 229 232 234 235 239 240 236 233 230 230 236 238 235 236 237 240 246 247 244 242 241 244 250 255 258 263 266 267 270 273 275 277 282 284 286 289 289 291 294 289 281 278 279 282 287 290 293 296 299 296 296 301 302 303 307 311 317 322 324 327 331 329 326 327 326 325 325 325 324 325 327
212 216 217 220 223 225 224 223 224 224 224 225 224 226 233 237 238 235 233 235 233 233 230 230 238 241 239 243 246 245 248 249 247 246 248 251 256 257 259 265 270 270 274 280 280 282 286 288 290 292 291 291 294 291 285 282 278 277 281 285 286 287 289 291 294 299 302 303 306 309 313 316 317 320 323 323 322 324 324 322 322 321 320 323 324
214 217 217 220 222 224 225 224 225 225 224 223 222 224 230 236 241 240 230 226 231 235 231 229 237 243 244 249 252 251 252 254 254 256 259 262 263 262 260 264 268 269 273 280 283 285 288 289 288 288 288 289 290 290 290 287 284 282 282 285 290 289 286 287 289 293 299 303 305 308 310 311 312 314 319 321 322 324 324 323 324 323 323 326 325
218 219 218 220 219 220 224 224 224 224 224 224 225 226 228 232 238 240 232 222 226 233 234 232 237 241 244 250 255 258 259 262 265 266 267 269 269 268 268 269 271 272 273 278 283 286 287 288 288 287 287 289 291 292 293 293 290 287 285 285 289 291 288 288 291 291 294 298 300 303 308 312 313 315 318 321 323 326 328 330 332 332 333 335 328
220 220 220 221 218 218 220 219 221 224 225 226 228 229 230 229 232 235 233 227 225 229 233 236 240 242 244 248 253 259 264 267 269 268 268 270 271 270 269 271 273 275 278 282 287 290 289 287 290 290 288 288 292 293 295 299 299 294 290 290 290 292 293 291 293 291 287 290 296 302 307 310 313 318 319 319 321 324 327 330 332 335 340 341 332
217 219 221 221 222 223 222 219 220 224 227 229 230 229 229 229 229 230 231 232 231 231 232 235 242 248 252 257 260 264 269 273 274 273 270 270 274 275 272 272 275 278 279 281 282 285 286 288 292 293 290 287 289 291 295 299 300 297 297 298 297 297 296 292 292 292 287 286 291 298 304 306 309 315 319 319 319 318 320 325 328 331 334 335 335
209 217 221 222 225 228 229 229 228 226 228 231 231 228 228 228 228 228 228 231 234 236 236 238 246 255 260 264 268 270 274 278 278 280 277 274 276 279 276 273 275 277 279 280 277 275 277 283 289 290 289 289 288 288 292 294 294 295 297 299 298 297 295 291 290 290 288 288 290 293 298 302 304 309 316 322 323 320 315 318 322 327 330 330 333
206 211 217 222 226 228 230 234 235 233 233 236 235 231 228 227 228 230 229 230 232 234 235 237 243 249 253 258 264 268 274 279 280 284 287 285 283 283 282 280 276 275 279 281 279 276 274 277 279 281 284 289 290 288 288 290 292 293 294 296 297 295 293 291 290 291 291 291 294 296 297 299 301 305 312 319 321 317 310 304 307 315 323 326 331
208 207 210 216 220 221 224 229 234 235 235 238 238 234 232 232 232 234 234 232 232 231 233 236 238 242 247 252 257 262 268 272 275 281 287 291 291 287 286 286 281 276 277 280 279 278 279 277 276 279 286 292 292 288 286 287 290 291 292 296 297 296 295 294 292 292 293 294 295 297 297 296 299 305 308 308 309 311 313 308 302 305 311 315 323
202 205 208 213 216 219 225 230 235 236 233 236 238 235 234 234 232 233 234 234 236 238 240 241 239 241 247 251 255 260 267 270 272 274 276 283 287 286 285 288 287 282 280 280 280 279 279 278 280 287 293 296 295 292 291 289 288 288 289 291 293 293 293 294 293 292 293 294 295 297 298 297 301 307 308 307 307 308 310 307 303 307 310 310 314
194 204 212 218 223 226 228 230 234 236 235 235 237 236 235 234 233 232 231 230 233 236 235 233 233 238 243 249 253 258 265 268 270 271 271 272 274 276 280 283 285 284 280 278 279 280 279 279 281 287 292 294 295 296 296 295 292 289 288 288 288 287 286 286 287 289 290 291 292 293 294 295 299 304 306 307 308 306 306 303 299 303 308 307 308
194 203 211 217 220 224 227 223 222 234 243 242 237 233 231 230 228 224 221 220 220 217 212 214 221 229 235 241 242 241 250 258 263 266 270 273 272 268 269 270 272 275 274 273 275 278 279 281 282 282 284 289 295 298 298 298 298 295 292 290 288 285 282 280 280 281 283 286 289 290 288 290 295 298 301 305 306 304 302 299 294 292 293 294 293
198 201 207 213 216 217 218 213 204 214 234 239 234 224 216 212 208 204 202 203 200 195 194 199 204 206 210 207 177 187 232 249 256 260 263 269 271 266 264 265 266 267 268 270 273 276 279 282 284 283 282 286 293 297 296 297 300 300 298 297 295 292 290 287 284 283 281 278 278 279 282 285 288 292 298 302 301 299 296 295 294 289 284 284 281
179 175 170 184 199 199 193 192 192 197 213 222 222 216 204 193 187 186 181 178 178 181 179 175 174 174 159 140 145 181 219 234 242 248 253 260 263 263 263 263 265 266 268 270 271 273 276 278 281 284 284 283 287 291 291 291 294 296 296 295 293 293 293 292 290 290 288 284 279 280 286 289 290 295 301 303 298 294 291 289 289 287 283 283 284
132 136 131 134 155 171 172 169 166 167 178 183 175 162 147 132 125 121 116 114 124 147 156 152 143 139 140 137 134 150 196 228 239 240 242 248 256 261 263 262 263 266 268 270 273 275 277 277 276 278 283 285 283 286 288 287 285 287 289 289 288 288 289 288 285 283 284 284 282 282 287 289 289 293 298 298 294 293 293 291 290 289 287 285 286
109 121 124 124 131 143 147 143 137 132 129 127 124 120 111 100 98 107 113 114 115 118 122 124 123 126 138 139 121 106 101 274 264 251 243 245 254 264 266 265 266 267 266 267 272 277 280 282 281 281 283 285 283 285 286 284 281 281 283 285 286 286 286 287 289 289 287 283 282 282 284 286 286 288 290 289 288 288 290 289 288 286 284 281 281
98 108 115 117 119 123 126 125 122 118 116 115 114 115 113 107 107 120 128 127 123 117 113 112 112 115 122 123 114 102 81 45 344 275 249 237 236 254 266 267 267 268 272 274 273 274 278 282 287 290 288 285 288 294 295 291 287 283 280 282 284 285 286 289 294 298 298 296 295 294 294 293 292 291 289 287 286 287 285 281 280 281 281 279 282
100 104 110 113 114 115 116 117 116 114 113 113 112 111 113 115 117 121 123 120 117 116 115 111 103 100 101 103 109 106 90 70 59 63 112 188 184 171 226 268 271 271 277 282 281 280 281 285 291 295 293 292 296 302 305 303 300 293 286 286 285 285 290 294 294 297 299 301 302 302 300 299 298 296 293 290 286 284 278 274 276 281 283 282 286
103 105 106 106 108 111 111 111 112 111 109 108 109 111 115 118 119 118 117 115 113 114 116 111 102 96 94 95 97 94 88 81 72 68 74 92 114 117 119 126 309 308 299 291 287 284 284 293 300 298 294 294 296 298 298 300 300 295 292 290 287 287 294 297 295 297 300 301 302 301 300 299 299 298 297 296 293 287 282 279 278 278 278 280 285
105 104 102 101 105 110 113 113 113 111 110 108 108 110 113 115 115 112 112 112 110 109 109 108 104 97 92 95 89 78 79 81 74 69 72 73 78 90 97 94 72 24 349 326 311 304 308 324 316 302 294 291 292 292 294 293 289 285 287 289 289 292 297 297 296 298 300 299 297 297 296 296 295 293 292 292 291 289 288 287 281 275 273 277 281
114 111 109 107 109 110 112 112 112 112 113 112 110 109 109 109 109 110 111 111 108 105 104 104 104 99 95 99 92 74 73 81 77 71 70 68 69 76 78 74 68 50 21 359 345 338 349 2 336 308 301 299 297 296 296 293 288 284 282 281 283 288 293 294 296 297 297 295 294 294 294 293 291 289 286 286 285 283 283 282 277 273 272 275 279
116 115 112 110 108 108 108 108 108 109 111 111 109 107 108 109 111 112 112 110 108 108 106 102 101 100 99 97 91 78 75 82 81 75 71 69 66 68 67 63 57 53 39 15 3 357 358 358 339 316 308 304 298 295 293 290 288 287 286 283 282 285 289 291 293 294 294 293 292 292 292 291 290 290 290 289 289 288 286 283 279 276 275 275 277
112 110 109 106 103 103 103 104 105 106 106 107 105 104 103 104 106 109 111 111 110 109 107 105 103 101 97 90 86 86 86 85 83 77 73 69 63 59 60 57 51 52 47 26 8 2 359 356 344 330 322 316 309 306 305 305 304 304 301 295 290 291 292 293 293 293 292 292 291 290 290 290 291 292 293 294 295 295 293 289 286 283 281 279 277
112 110 108 105 103 103 102 102 103 103 101 101 100 98 97 96 97 100 103 104 103 99 100 102 101 96 90 80 82 88 88 83 78 72 68 65 60 57 56 53 50 49 47 35 22 17 18 14 6 356 349 342 332 325 325 326 325 324 320 314 309 307 305 303 300 298 296 295 292 291 291 292 292 293 295 298 299 298 295 292 290 287 284 282 279
118 115 113 110 108 107 105 104 103 101 98 96 93 91 91 90 89 90 91 93 92 87 86 90 89 86 85 80 80 82 81 76 71 67 64 63 61 59 57 54 52 50 45 39 34 32 31 26 19 16 15 11 5 3 1 353 347 346 346 346 344 336 325 315 308 303 301 301 301 300 301 301 300 299 301 301 301 300 299 298 296 294 292 290 287
126 122 118 116 114 112 108 105 104 101 97 94 92 91 91 89 86 84 82 82 82 81 81 82 83 84 86 82 77 74 70 67 65 61 60 59 56 53 51 49 47 45 41 35 30 25 21 16 12 13 16 16 17 18 14 5 3 4 2 4 4 358 351 347 342 335 329 326 323 320 318 315 311 310 309 308 306 306 306 304 303 301 301 300 297
131 125 121 118 115 112 109 106 104 101 95 92 91 88 87 87 84 78 74 72 74 79 82 81 82 85 88 85 76 68 62 59 58 54 51 49 45 40 37 32 30 31 30 26 24 20 14 12 11 11 12 13 12 11 4 358 1 2 358 0 3 1 359 358 355 353 354 351 344 337 334 331 326 322 319 316 313 312 311 309 307 305 303 301 298
127 122 119 117 111 108 109 107 103 99 95 93 90 83 80 80 78 75 74 73 73 79 84 84 83 85 87 84 74 66 60 55 54 53 48 42 39 36 32 29 28 28 24 21 19 15 11 12 15 15 17 18 14 12 7 2 2 359 354 358 2 357 354 351 347 348 354 353 347 342 341 339 335 331 331 328 323 320 319 317 312 309 307 302 296
120 117 118 120 116 111 108 105 102 99 98 96 93 89 87 86 83 83 84 85 86 89 89 88 86 83 81 78 71 68 64 59 57 56 50 43 40 37 35 32 32 30 24 18 17 17 18 21 22 19 19 18 15 12 9 4 3 1 359 1 3 357 355 356 351 348 351 349 344 342 342 339 336 336 337 334 329 326 326 325 320 316 313 304 293
112 110 110 113 113 111 108 107 106 104 103 101 99 95 93 94 95 95 94 92 94 97 96 94 91 86 80 75 71 71 70 66 61 57 51 45 41 39 37 35 32 28 21 15 18 24 29 30 29 23 19 16 12 8 4 0 359 359 358 360 1 358 357 359 354 349 348 345 340 339 339 338 336 337 337 336 335 335 334 334 332 329 326 318 305
107 105 106 109 113 111 107 107 108 108 106 106 105 101 96 93 93 96 99 97 95 94 93 91 87 84 81 77 72 69 66 60 52 47 44 42 39 35 30 26 23 20 17 18 26 34 34 31 29 23 18 17 13 6 1 358 356 355 353 353 356 356 356 354 350 347 345 342 339 338 338 336 336 337 338 339 337 334 330 330 332 332 332 330 325
109 106 108 112 115 112 107 105 106 106 105 104 104 107 106 102 97 96 98 101 101 99 97 91 83 77 77 78 76 72 66 57 50 47 45 42 38 30 23 20 17 13 14 22 37 43 37 31 28 21 14 13 10 3 359 357 354 352 350 347 348 350 349 346 345 344 343 340 339 338 336 335 335 336 336 334 331 328 326 326 328 329 329 328 327
116 111 110 111 111 109 108 106 104 104 106 107 109 115 122 124 118 111 106 103 101 99 99 97 93 87 83 82 82 83 78 68 60 59 58 54 43 28 19 16 14 15 22 33 42 40 33 29 25 18 12 8 3 359 357 355 350 348 346 343 341 341 341 340 340 341 341 339 338 336 335 335 334 333 334 333 331 329 328 327 328 329 328 326 323
115 113 114 114 111 107 107 106 103 102 102 104 112 122 129 134 136 137 135 125 111 98 91 88 90 95 97 93 92 90 84 74 71 71 71 69 53 30 18 10 9 14 24 33 32 25 22 18 12 9 6 1 357 355 351 348 346 344 341 339 336 335 335 337 339 340 339 337 336 334 333 333 333 333 333 334 333 332 330 329 330 329 328 325 321
119 117 121 120 114 111 110 109 110 110 105 102 110 127 138 136 137 149 156 151 137 123 103 84 80 87 91 89 86 80 67 65 84 129 135 108 59 27 11 359 356 1 8 12 11 8 7 3 359 358 355 352 351 349 346 343 342 340 337 335 333 332 333 334 335 336 336 335 334 333 331 330 330 331 330 330 331 331 330 329 328 326 323 321 319
124 122 126 127 125 125 122 118 118 120 121 127 141 150 151 147 144 146 147 144 144 142 128 108 91 77 64 55 54 60 67 59 39 113 154 140 81 21 356 343 342 346 348 352 352 351 351 351 350 348 345 344 343 342 341 339 337 334 332 330 328 327 329 330 330 331 333 332 331 330 330 328 327 327 325 325 327 328 326 324 324 321 318 316 313
123 123 129 134 140 144 140 136 140 142 143 151 159 158 152 146 145 149 150 145 145 140 123 115 117 59 33 28 30 41 61 62 49 70 120 121 47 7 342 333 337 337 336 339 341 340 341 342 341 340 339 337 336 336 335 334 331 328 326 324 323 322 323 325 326 327 329 329 329 328 327 325 324 324 322 321 321 323 322 321 320 318 315 313 309
115 117 124 133 145 152 153 152 154 155 155 157 160 158 151 144 140 142 143 140 140 141 130 114 99 14 5 5 2 4 11 23 37 53 46 351 349 344 331 327 328 328 330 334 336 335 334 332 332 332 330 329 330 330 329 328 326 323 321 320 318 319 319 320 323 325 324 324 325 325 324 323 322 321 320 317 316 316 316 317 316 315 314 313 309
123 118 119 126 139 151 155 155 153 154 158 159 161 157 148 141 137 137 137 136 137 139 135 116 85 44 14 357 349 344 339 329 319 318 318 318 324 327 325 322 323 324 327 328 328 328 327 325 325 325 323 323 324 324 324 323 320 317 316 316 314 316 317 317 320 321 319 317 317 318 319 318 317 316 315 312 310 309 310 312 313 312 312 311 308
141 131 123 125 133 142 146 147 147 148 149 150 152 150 143 138 138 138 135 137 141 136 124 98 59 36 20 7 357 345 328 314 306 309 309 306 310 318 319 316 316 320 322 323 325 325 322 320 320 320 319 318 319 319 319 319 317 314 313 311 310 311 311 312 316 317 315 313 314 314 313 313 313 313 311 308 307 306 305 305 306 308 308 307 306
144 139 133 132 136 138 137 135 135 137 140 141 141 139 135 135 139 141 136 142 153 146 137 327 328 338 349 353 350 329 312 305 300 299 300 301 303 307 308 309 311 313 315 318 320 319 318 318 317 316 315 314 314 314 314 314 313 311 309 307 307 307 307 310 313 314 311 310 312 312 311 311 311 310 308 306 305 305 302 300 301 303 303 303 305
145 143 137 135 135 132 128 128 129 132 136 137 132 130 130 133 138 142 137 133 144 158 228 291 298 307 318 325 324 313 302 298 297 297 298 298 297 298 300 302 303 302 305 309 312 313 313 312 311 311 311 309 309 309 310 310 309 307 306 304 304 303 305 308 311 311 309 308 309 309 308 309 308 307 305 305 304 304 302 301 300 299 299 300 303
143 140 135 132 132 129 127 130 131 131 132 133 129 128 132 135 133 134 134 131 149 272 287 300 307 306 309 321 330 328 313 299 296 296 297 297 296 296 296 298 298 298 299 303 308 309 309 308 307 307 305 303 303 303 303 303 303 303 302 301 300 301 304 307 309 309 309 310 310 309 307 307 307 306 305 305 304 303 302 300 299 298 296 297 300
139 136 133 131 130 130 130 131 131 129 130 132 131 131 134 133 129 134 142 140 316 309 303 308 315 313 309 314 323 323 311 299 296 294 295 296 294 293 295 298 299 299 299 304 307 308 307 305 304 303 301 300 299 298 297 297 298 296 295 296 298 300 302 306 307 308 309 310 309 308 307 306 306 305 305 305 305 304 302 301 299 298 296 295 295
140 137 135 132 131 131 129 129 130 130 131 134 134 134 133 127 123 122 114 68 333 311 311 313 317 319 316 313 314 310 304 299 296 294 294 293 293 295 297 300 303 306 305 305 306 306 304 302 300 299 298 297 295 294 295 294 293 291 292 293 295 298 302 305 306 307 310 310 308 306 305 305 305 304 304 304 305 303 301 300 299 298 296 295 293
141 138 136 132 131 130 129 128 129 128 128 128 127 125 119 111 106 101 75 31 348 324 320 316 317 318 316 312 310 310 306 304 300 298 297 297 298 300 301 303 310 314 309 305 305 305 304 302 299 295 293 292 292 293 292 291 290 290 289 291 294 299 302 305 307 309 310 309 307 305 303 302 301 301 301 301 301 300 298 298 297 294 293 294 293
140 137 136 133 130 129 127 126 124 121 120 119 116 114 112 105 96 83 59 26 352 326 315 311 313 316 314 310 309 311 311 308 305 303 301 299 300 304 305 305 311 312 307 305 306 306 303 301 299 296 293 292 291 290 290 289 288 286 287 293 299 300 300 304 308 310 310 308 306 304 301 299 299 300 299 299 299 297 296 297 295 292 290 291 293
140 137 134 132 131 130 127 126 124 121 119 117 113 112 109 98 81 66 38 10 349 333 322 318 317 316 314 311 312 313 312 311 308 306 305 304 307 313 316 314 312 311 307 306 305 304 302 301 300 297 296 294 292 292 292 291 288 286 290 297 299 296 299 307 311 311 309 307 305 302 299 297 297 299 299 298 297 295 294 294 294 292 290 290 292
144 140 136 133 132 129 127 128 127 122 120 120 120 117 112 100 87 66 21 354 346 341 333 326 323 320 316 313 313 312 312 311 309 307 306 307 310 316 318 314 311 310 308 306 305 304 303 302 302 301 299 298 297 296 294 292 291 292 295 295 292 294 303 311 314 312 310 309 306 302 300 299 300 300 300 298 295 293 292 292 292 293 292 291 291
145 142 138 134 132 130 129 129 127 125 125 126 125 124 120 113 101 66 10 348 344 343 335 325 321 319 315 311 312 312 312 312 310 308 308 307 308 312 314 312 311 311 309 307 307 307 306 306 307 306 305 304 304 302 300 298 298 299 298 298 301 306 312 316 315 313 313 312 309 307 306 307 307 306 302 298 294 293 294 293 293 293 294 292 290
146 143 139 136 135 134 134 131 128 127 131 130 128 129 127 118 102 51 8 348 339 336 331 323 319 319 316 314 313 313 312 311 308 307 308 307 307 308 310 311 311 312 311 310 311 311 312 313 315 314 313 313 312 311 310 308 302 298 301 308 314 318 320 319 317 317 316 315 312 312 312 311 310 306 300 295 294 294 295 295 294 293 293 292 292